Location: Beneden-Haastrecht
(52.0012°N, 4.7557°E)
Time: 03:18:07
(UTC+00:00)

Cosmos 1110 Rocket - Pass Details

Date: 24 October 2020
Orbit: 753 x 780 km, 74.0° (Epoch: 27 November)

Event Time Altitude Azimuth Distance (km) Brightness Sun altitude
Rises 18:19:00 0° 211° (SSW) 3,234 7.6 -17.8°
Reaches altitude 10° 18:21:24 10° 213° (SSW) 2,307 6.9 -18.2°
Maximum altitude 18:26:37 70° 297° (WNW) 818 4.3 -19.0°
Drops below altitude 10° 18:31:50 10° 22° (NNE) 2,304 6.3 -19.8°
Sets 18:34:14 0° 25° (NNE) 3,230 7.1 -20.1°
